Hauptseite
METAR-TAF:

METAR-TAF

Flughäfen :

Militärflugplatz Emmen

Emmen, Schweiz

Breite: 47-05-32N, Länge: 8-18-16E, Höhe: 426 m

Beobachtung

Neuester Wetterbericht von vor 36 Minuten, um 05:20 UTC
Wind 6 kt aus Nordost
Temperatur 2°C
Luftfeuchtigkeit 80%
Luftdruck 1010 hPa
Sichtweite 10 km oder mehr
Geschlossene Wolkendecke in der Höhe von 2100 ft

METAR: LSME 190520Z AUTO 04006KT 9999NDV OVC021 02/M01 Q1010 RMK

Zeit: 06:56 (05:56 UTC)


TAF: fehlend

Wetterbeobachtungen und Prognosen von mehr als 4000 Flughäfen (METAR und TAF Bericht).

Die verfügbaren Stationen werden durch gelbe und rote Markierungen auf der Karte dargestellt.

Führen Sie die Maus auf sie, um den Namen der Station zu sehen.

Darauf klicken, um die Beobachtung von Wetterbeobachtungen und Prognosen zu sehen.

Um die Karte zu ändern : klicken Sie auf den grünen Tasten mit einem schwarzen Kreuz Zum Vergrößern, auf den grünen Button mit einem Gedankenstrich zu verkleinern, oder auf die grünen Pfeile für benachbarte Karten.


METAR-TAF: